TimeEDT,TemperatureF,Dew PointF,Humidity,Sea Level PressureIn,VisibilityMPH,Wind Direction,Wind SpeedMPH,Gust SpeedMPH,PrecipitationIn,Events,Conditions,WindDirDegrees,DateUTC
12:54 AM,73.9,72.0,93,30.15,6.0,Calm,Calm,-,N/A,,Clear,0,2013-09-11 04:54:00
1:54 AM,73.0,71.1,93,30.13,6.0,Calm,Calm,-,N/A,,Clear,0,2013-09-11 05:54:00
2:54 AM,73.0,71.1,93,30.13,6.0,Calm,Calm,-,N/A,,Clear,0,2013-09-11 06:54:00
3:54 AM,73.0,71.1,93,30.12,6.0,Calm,Calm,-,N/A,,Partly Cloudy,0,2013-09-11 07:54:00
4:54 AM,73.0,71.1,93,30.11,5.0,Calm,Calm,-,N/A,,Clear,0,2013-09-11 08:54:00
5:54 AM,71.1,70.0,96,30.12,4.0,Calm,Calm,-,N/A,,Clear,0,2013-09-11 09:54:00
6:11 AM,69.8,69.8,100,30.13,1.5,Calm,Calm,-,N/A,,Clear,0,2013-09-11 10:11:00
6:28 AM,69.8,69.8,100,30.13,2.0,Calm,Calm,-,N/A,,Clear,0,2013-09-11 10:28:00
6:38 AM,69.8,69.8,100,30.14,1.5,Calm,Calm,-,N/A,,Clear,0,2013-09-11 10:38:00
6:54 AM,71.1,70.0,96,30.14,1.8,Calm,Calm,-,N/A,,Clear,0,2013-09-11 10:54:00
7:42 AM,73.4,71.6,94,30.15,2.5,Calm,Calm,-,N/A,,Clear,0,2013-09-11 11:42:00
7:50 AM,73.4,71.6,94,30.15,3.0,Calm,Calm,-,N/A,,Clear,0,2013-09-11 11:50:00
7:54 AM,73.0,72.0,96,30.15,3.0,Calm,Calm,-,N/A,,Clear,0,2013-09-11 11:54:00
8:54 AM,77.0,73.0,88,30.15,6.0,WSW,4.6,-,N/A,,Clear,250,2013-09-11 12:54:00
9:54 AM,81.0,73.0,77,30.15,7.0,WSW,6.9,-,N/A,,Clear,250,2013-09-11 13:54:00
10:54 AM,82.9,73.9,74,30.14,8.0,SW,4.6,-,N/A,,Clear,230,2013-09-11 14:54:00
11:54 AM,87.1,73.9,65,30.12,8.0,SSW,4.6,-,N/A,,Clear,210,2013-09-11 15:54:00
12:54 PM,88.0,73.0,61,30.11,9.0,SSW,6.9,-,N/A,,Clear,210,2013-09-11 16:54:00
1:54 PM,89.1,72.0,57,30.10,9.0,South,8.1,-,N/A,,Clear,170,2013-09-11 17:54:00
2:54 PM,90.0,73.9,59,30.07,8.0,SSW,6.9,-,N/A,,Clear,210,2013-09-11 18:54:00
3:54 PM,90.0,73.9,59,30.05,9.0,Variable,6.9,-,N/A,,Clear,0,2013-09-11 19:54:00
4:54 PM,87.1,73.0,63,30.04,8.0,South,8.1,-,N/A,,Clear,180,2013-09-11 20:54:00
5:54 PM,84.9,73.0,67,30.04,9.0,Calm,Calm,-,N/A,,Clear,0,2013-09-11 21:54:00
6:54 PM,81.0,72.0,74,30.04,7.0,Variable,3.5,-,N/A,,Clear,0,2013-09-11 22:54:00
7:54 PM,78.1,72.0,81,30.05,7.0,Calm,Calm,-,N/A,,Clear,0,2013-09-11 23:54:00
8:54 PM,75.9,71.1,85,30.06,7.0,SSE,3.5,-,N/A,,Clear,150,2013-09-12 00:54:00
9:54 PM,73.9,70.0,87,30.06,7.0,Calm,Calm,-,N/A,,Clear,0,2013-09-12 01:54:00
10:54 PM,73.9,71.1,91,30.04,5.0,Calm,Calm,-,N/A,,Clear,0,2013-09-12 02:54:00
11:54 PM,75.0,72.0,90,30.02,6.0,Variable,3.5,-,N/A,,Clear,0,2013-09-12 03:54:00